Content
SEND FEEDBACK

Daily
Averages
Monthly
Summary
United States of America

CLAYTON, WYOMING


Home > North America > United States > Wyoming
Elevation: 6402 feet     Latitude: 42 40N     Longitude: 105 49W

WEATHER
 
SELECT A DAY
Number of Records: 161,744;   Date Range: 5/28/98 - 9/16/14
 
SHARE

PRINT THIS DATA

[ ← Previous Day ]
WEATHER ALMANAC - FEBRUARY 13, 2013
[ Next Day → ]
[ °C ]   °F
Weather ElementAverageHighLow
Temperature31 °F41 °F (12:53 pm)12.9 °F (2:53 am)
Dewpoint21.4 °F28.4 °F (4:38 pm)8.1 °F (2:53 am)
Humidity69.1 %89 % (11:53 pm)47 % (1:53 pm)
Barometer30.01 in30.08 in (8:53 pm)29.92 in (4:38 pm)
Wind Speed12.3 mph24.2 mph (11:53 am)
Wind Gust35.7 mph (3:53 pm)
Weather ElementAverage
Visibility9 mi
Wind DirectionWNW (278.9 °)

Weather ElementTotal
Precipitation---
Heating Degree Days38.1 (Base 65)
Averaged from 27 records on February 13, 2013
WEATHER CONDITIONS BREAKOUT
WIND DIRECTION BREAKOUT
WEATHER BY HOUR - FEBRUARY 13, 2013
[ °C ]   °F
Local TimeTemperatureDewpointHumidityBarometerVisibilityWind DirectionWind SpeedGust SpeedPrecipitationEventsConditions
1:53 AM18.0 °F10.9 °F74 %30.06 in10.0 miNorth (350°)5.8 mphClear
2:53 AM12.9 °F8.1 °F81 %30.04 in10.0 miCalmClear
3:53 AM17.1 °F10.0 °F74 %30.02 in10.0 miNorth (350°)9.2 mphClear
4:53 AM19.0 °F12.0 °F74 %30.03 in10.0 miNW (320°)5.8 mphClear
5:53 AM21.9 °F12.9 °F68 %30.03 in10.0 miWest (280°)5.8 mphClear
6:53 AM28.0 °F16.0 °F61 %30.01 in10.0 miWNW (290°)11.5 mph21.9 mphClear
7:53 AM28.9 °F16.0 °F58 %30.03 in10.0 miVariable3.5 mphClear
8:53 AM30.9 °F19.0 °F61 %30.05 in10.0 miWNW (290°)8.1 mphClear
9:53 AM35.1 °F19.9 °F54 %30.01 in10.0 miCalmPartly Cloudy
10:53 AM37.9 °F23.0 °F55 %29.99 in10.0 miWest (270°)13.8 mphPartly Cloudy
11:53 AM39.0 °F21.9 °F50 %29.97 in10.0 miWNW (290°)24.2 mph31.1 mphClear
12:53 PM41.0 °F23.0 °F49 %29.96 in10.0 miWest (280°)13.8 mphMostly Cloudy
1:53 PM41.0 °F21.9 °F47 %29.93 in10.0 miWNW (290°)23.0 mphClear
2:53 PM39.9 °F23.0 °F51 %29.94 in10.0 miWest (270°)23.0 mph33.4 mphClear
3:53 PM41.0 °F23.0 °F49 %29.94 in10.0 miWest (280°)23.0 mph35.7 mphScattered Clouds
4:38 PM35.6 °F28.4 °F75 %29.92 in5.0 miNorth (350°)16.1 mph34.5 mph0.00 inSnowLight Snow
4:53 PM35.1 °F28.0 °F76 %30.03 in9.0 miNorth (350°)17.3 mph26.5 mph0.00 inSnowLight Snow
5:04 PM33.8 °F28.4 °F81 %29.93 in2.0 miNorth (360°)17.3 mph27.6 mph0.00 inSnowLight Snow
5:17 PM33.8 °F28.4 °F81 %29.94 in9.0 miNorth (350°)20.7 mph0.00 inOvercast
5:53 PM32.0 °F27.0 °F82 %30.06 in10.0 miNorth (360°)17.3 mph27.6 mph0.00 inOvercast
6:15 PM32.0 °F26.6 °F80 %29.97 in10.0 miNorth (350°)12.7 mphOvercast
6:53 PM30.9 °F27.0 °F85 %30.06 in10.0 miNNW (330°)10.4 mphOvercast
7:53 PM30.9 °F24.1 °F76 %30.07 in10.0 miNW (310°)10.4 mphOvercast
8:53 PM30.9 °F24.1 °F76 %30.08 in9.0 miWNW (300°)11.5 mph0.00 inSnowLight Snow
9:53 PM30.9 °F24.1 °F76 %30.07 in6.0 miNW (310°)15.0 mph20.7 mph0.00 inSnowLight Snow
10:53 PM30.0 °F25.0 °F82 %30.07 in10.0 miWNW (300°)6.9 mph0.00 inOvercast
11:53 PM28.9 °F26.1 °F89 %30.07 in4.0 miWNW (300°)5.8 mph0.00 inSnowLight Snow
Hourly data recorded from KDGW, located miles away from Clayton, Wyoming







STORIES FROM OUR PARTNERS